Regional Weather Roundup
Issued by NWS

Home | Current Version | Previous Version | Text Only | Print | Product List | Glossary On
Versions: 1 2 3 4 5 6 7 8 9 10 11 12 13 14 15 16 17 18 19 20 21 22 23 24 25 26 27 28 29 30 31 32 33 34 35 36 37 38 39 40 41 42 43 44 45 46 47 48 49 50
000
ASUS46 KSEW 272310
RWRWA

WASHINGTON REGIONAL WEATHER ROUNDUP
NATIONAL WEATHER SERVICE SEATTLE WA
400 PM PDT SAT MAY 27 2017

NOTE:"FAIR" INDICATES FEW OR NO CLOUDS BELOW 12,000 FEET WITH NO
SIGNIFICANT WEATHER AND/OR OBSTRUCTIONS TO VISIBILITY.

WAZ507-509-555>559-280000-
SEATTLE, TACOMA, EVERETT, AND VICINITY

CITY           SKY/WX    TMP DP  RH WIND       PRES   REMARKS
EVERETT        SUNNY     79  47  32 N7        30.09F
BOEING FIELD   SUNNY     83  51  33 NW8       30.04F
RENTON         SUNNY     83  52  34 NW10      30.04F
SEATAC AIRPORT MOSUNNY   84  46  26 N10       30.06F
JBLM-MCCHORD   SUNNY     83  49  29 NE8       30.05F
PUYALLUP         N/A     84  45  24 VRB3      30.06F
BREMERTON      SUNNY     82  48  30 N7        30.07F
JBLM-FT LEWIS  MOSUNNY   84  39  20 VRB7      30.08S
TACOMA NARROWS SUNNY     81  41  24 NE9       30.05F
$$

WAZ001-503-506-510-514-515-280000-
NORTH INTERIOR

CITY           SKY/WX    TMP DP  RH WIND       PRES   REMARKS
BELLINGHAM     SUNNY     79  48  33 W6        30.07F
FRIDAY HARBOR  SUNNY     78  57  48 CALM      30.09F
EASTSOUND      SUNNY     70  52  52 N5        30.08F
PORT ANGELES   SUNNY     68  50  52 N6        30.10F
EDIZ HOOK      FAIR      65  50  57 CALM      30.09F
PORT TOWNSEND  FAIR      73  54  49 SW7       30.08F
NAS WHIDBEY    MOSUNNY   64  50  60 W7        30.12F
ARLINGTON      SUNNY     81  52  36 NW12      30.07F
BURLINGTON     SUNNY     77  55  47 NW8       30.07F
$$

WAZ020-022-039-040-504-511-512-280000-
SOUTHWEST INTERIOR

CITY           SKY/WX    TMP DP  RH WIND       PRES   REMARKS
SHELTON        SUNNY     85  44  23 CALM      30.02F
OLYMPIA        SUNNY     84  45  25 MISG      30.05F
CHEHALIS       NOT AVBL
KELSO          SUNNY     86  55  34 W6        30.02F
VANCOUVER      SUNNY     86  47  25 SW7       30.00F
SCAPPOOSE, OR  SUNNY     86  52  30 E5        30.00F
PORTLAND, OR   MOSUNNY   87  40  19 W9        30.00F
$$

WAZ021-516-517-280000-
WASHINGTON COAST

CITY           SKY/WX    TMP DP  RH WIND       PRES   REMARKS
FORKS          SUNNY     72  52  49 SW10      30.09F
HOQUIAM        SUNNY     58  55  90 SW15      30.09S
ASTORIA, OR    PTSUNNY   58  52  80 SW12      30.09F
$$

WAZ019-023-024-040-567>569-280000-
CASCADE MOUNTAINS AND COLUMBIA GORGE

CITY           SKY/WX    TMP DP  RH WIND       PRES   REMARKS
STAMPEDE PASS  SUNNY     73  38  27 CALM      30.18F
TROUTDALE, OR  SUNNY     88  52  29 VRB3      29.99F
THE DALLES, OR SUNNY     91  35  13 NE6       30.00F
$$

WAZ026-027-041>044-520-521-280000-
EAST SLOPES

CITY           SKY/WX    TMP DP  RH WIND       PRES   REMARKS
OMAK           SUNNY     84  40  21 S12       30.07S
WENATCHEE      SUNNY     84  41  21 SE10      30.05F
ELLENSBURG     SUNNY     86  39  19 E6        30.08F
YAKIMA         SUNNY     87  42  20 VRB5      30.06F
SUNNYSIDE ARPT CLEAR     83  45  25 E5        30.06S
$$

WAZ028-034-035-280000-
COLUMBIA BASIN

CITY           SKY/WX    TMP DP  RH WIND       PRES   REMARKS
EPHRATA        SUNNY     85  37  18 W7        30.07F
MOSES LAKE     SUNNY     85  33  15 VRB7      30.08F
PASCO          SUNNY     89  39  17 N6        30.04F
HERMISTON, OR  SUNNY     87  37  17 E7        30.04F
$$

WAZ036>038-280000-
NORTHEAST WASHINGTON

CITY           SKY/WX    TMP DP  RH WIND       PRES   REMARKS
SPOKANE GEIGER MOSUNNY   78  41  26 VRB5      30.13F
SPOKANE FELTS  SUNNY     81  44  27 VRB6      30.12S
FAIRCHILD AFB  SUNNY     77  42  28 S8        30.13F
COEURDALENE,ID SUNNY     78  42  27 VRB6      30.14S
DEER PARK      SUNNY     80  38  22 SW7       30.12F
$$

WAZ029>033-280000-
SOUTHEAST WASHINGTON

CITY           SKY/WX    TMP DP  RH WIND       PRES   REMARKS
PULLMAN        PTSUNNY   76  43  30 SW3       30.17S
LEWISTON, ID   SUNNY     82  43  25 E7        30.10F
WALLA WALLA    SUNNY     86  42  21 N9        30.07F
PENDLETON, OR  SUNNY     84  38  19 VRB3      30.07F
$$



USA.gov is the U.S. government's official web portal to all federal, state and local government web resources and services.